Weather History for KFWC - November, 2013

Change the Weather History Date:

Wednesday, November 27, 2013

  Actual Average (KMVN) Record (KMVN)
Temperature  
Mean Temperature 22 °F -  
Max Temperature 28 °F 49 °F 68 °F (1998)
Min Temperature 17 °F 32 °F 15 °F (2013)
Degree Days  
Heating Degree Days 42    
Moisture  
Dew Point 5 °F    
Average Humidity 47    
Maximum Humidity 79    
Minimum Humidity 29    
Precipitation  
Precipitation 0.00 in - - ()
Sea Level Pressure  
Sea Level Pressure 30.27 in    
Wind  
Wind Speed 8 mph (NW)    
Max Wind Speed 15 mph    
Max Gust Speed 21 mph    
Visibility 10 miles    
Events      
Averages and records for this station are not official NWS values.
T = Trace of Precipitation, MM = Missing Value Source: NWS Daily Summary

Daily Weather History Graph

Daily Weather History Graph

Search for Another Location

Airport or City:

Trip Planner

Search our weather history database for the weather conditions in past years. The results will help you decide how hot, cold, wet, or windy it might be!

Date:

Astronomy

Nov. 27, 2013 Rise Set
Actual Time 6:48 AM CST 4:34 PM CST
Civil Twilight 6:19 AM CST 5:03 PM CST
Nautical Twilight 5:46 AM CST 5:36 PM CST
Astronomical Twilight 5:14 AM CST 6:07 PM CST
Moon 12:54 AM CST (11/27) 1:07 PM CST (11/27)
Length of Visible Light 10h 44m
Length of Day
9h 46m
Waning Crescent, 31% of the Moon is Illuminated
Nov 27
Waning Crescent
Dec 2
New
Dec 9
First Quarter
Dec 17
Full
Dec 25
Last Quarter

Hourly Weather History & Observations

Time (CST) Temp. Windchill Dew Point Humidity Pressure Visibility Wind Dir Wind Speed Gust Speed Precip Events Conditions
12:15 AM 24.8 °F 14.6 °F 6.8 °F 46% 30.15 in 10.0 mi NNW 10.4 mph 18.4 mph N/A   Clear
12:35 AM 24.8 °F 14.6 °F 6.8 °F 46% 30.15 in 10.0 mi NW 10.4 mph - N/A   Clear
12:55 AM 24.8 °F 16.9 °F 8.6 °F 50% 30.15 in 10.0 mi NNW 6.9 mph 17.3 mph N/A   Clear
1:15 AM 24.8 °F 14.0 °F 6.8 °F 46% 30.16 in 10.0 mi NW 11.5 mph 17.3 mph N/A   Clear
1:35 AM 24.8 °F 13.4 °F 6.8 °F 46% 30.16 in 10.0 mi NW 12.7 mph 16.1 mph N/A   Clear
1:55 AM 23.0 °F 13.1 °F 6.8 °F 50% 30.16 in 10.0 mi NNW 9.2 mph 18.4 mph N/A   Clear
2:15 AM 23.0 °F 13.9 °F 6.8 °F 50% 30.17 in 10.0 mi NNW 8.1 mph 16.1 mph N/A   Clear
2:35 AM 23.0 °F 14.7 °F 6.8 °F 50% 30.17 in 10.0 mi NW 6.9 mph 17.3 mph N/A   Clear
2:55 AM 21.2 °F 12.6 °F 6.8 °F 54% 30.17 in 10.0 mi NW 6.9 mph - N/A   Clear
3:15 AM 21.2 °F 10.1 °F 6.8 °F 54% 30.18 in 10.0 mi NNW 10.4 mph - N/A   Clear
3:35 AM 21.2 °F 10.1 °F 6.8 °F 54% 30.18 in 10.0 mi NNW 10.4 mph 18.4 mph N/A   Clear
3:55 AM 21.2 °F 11.7 °F 6.8 °F 54% 30.19 in 10.0 mi NNW 8.1 mph 17.3 mph N/A   Clear
4:15 AM 21.2 °F 10.9 °F 6.8 °F 54% 30.20 in 10.0 mi NNW 9.2 mph 16.1 mph N/A   Clear
4:35 AM 21.2 °F 12.6 °F 6.8 °F 54% 30.20 in 10.0 mi NNW 6.9 mph 17.3 mph N/A   Clear
4:55 AM 19.4 °F 7.2 °F 5.0 °F 54% 30.21 in 10.0 mi NNW 11.5 mph 17.3 mph N/A   Clear
5:15 AM 19.4 °F 8.6 °F 5.0 °F 54% 30.21 in 10.0 mi NNW 9.2 mph 18.4 mph N/A   Clear
5:35 AM 19.4 °F 9.5 °F 3.2 °F 49% 30.22 in 10.0 mi NNW 8.1 mph - N/A   Clear
5:55 AM 19.4 °F 8.6 °F 3.2 °F 49% 30.22 in 10.0 mi NW 9.2 mph - N/A   Clear
6:15 AM 19.4 °F 9.5 °F 3.2 °F 49% 30.23 in 10.0 mi NW 8.1 mph 17.3 mph N/A   Clear
6:35 AM 19.4 °F 8.6 °F 3.2 °F 49% 30.24 in 10.0 mi NW 9.2 mph - N/A   Clear
6:55 AM 19.4 °F 10.4 °F 3.2 °F 49% 30.25 in 10.0 mi NW 6.9 mph - N/A   Clear
7:15 AM 19.4 °F 7.9 °F 3.2 °F 49% 30.25 in 10.0 mi NNW 10.4 mph - N/A   Clear
7:35 AM 19.4 °F 7.9 °F 3.2 °F 49% 30.26 in 10.0 mi NNW 10.4 mph 16.1 mph N/A   Clear
7:55 AM 19.4 °F 8.6 °F 3.2 °F 49% 30.26 in 10.0 mi NNW 9.2 mph 20.7 mph N/A   Clear
8:15 AM 21.2 °F 8.9 °F 3.2 °F 46% 30.27 in 10.0 mi NNW 12.7 mph 19.6 mph N/A   Clear
8:35 AM 21.2 °F 7.8 °F 3.2 °F 46% 30.27 in 10.0 mi North 15.0 mph 18.4 mph N/A   Clear
8:55 AM 21.2 °F 9.5 °F 1.4 °F 42% 30.28 in 10.0 mi NNW 11.5 mph 20.7 mph N/A   Clear
9:15 AM 21.2 °F 8.9 °F 1.4 °F 42% 30.28 in 10.0 mi NNW 12.7 mph 17.3 mph N/A   Clear
9:35 AM 23.0 °F 12.4 °F 1.4 °F 39% 30.29 in 10.0 mi NW 10.4 mph 19.6 mph N/A   Clear
9:55 AM 23.0 °F 12.4 °F 1.4 °F 39% 30.29 in 10.0 mi NW 10.4 mph 19.6 mph N/A   Clear
10:15 AM 24.8 °F 14.6 °F 1.4 °F 36% 30.29 in 10.0 mi NW 10.4 mph 19.6 mph N/A   Clear
10:35 AM 24.8 °F 13.4 °F -0.4 °F 34% 30.29 in 10.0 mi NNW 12.7 mph 20.7 mph N/A   Clear
10:55 AM 24.8 °F 14.6 °F -0.4 °F 34% 30.28 in 10.0 mi NNW 10.4 mph 17.3 mph N/A   Clear
11:15 AM 24.8 °F 14.6 °F -0.4 °F 34% 30.27 in 10.0 mi NNW 10.4 mph 16.1 mph N/A   Clear
11:35 AM 26.6 °F 17.5 °F -0.4 °F 31% 30.28 in 10.0 mi NW 9.2 mph - N/A   Clear
11:55 AM 26.6 °F 16.2 °F -0.4 °F 31% 30.27 in 10.0 mi NW 11.5 mph - N/A   Clear
12:15 PM 26.6 °F 16.8 °F -2.2 °F 29% 30.27 in 10.0 mi NW 10.4 mph 17.3 mph N/A   Clear
12:35 PM 28.4 °F 21.2 °F -0.4 °F 29% 30.27 in 10.0 mi NW 6.9 mph - N/A   Clear
12:55 PM 28.4 °F 18.5 °F -0.4 °F 29% 30.27 in 10.0 mi NW 11.5 mph 18.4 mph N/A   Clear
1:15 PM 28.4 °F 19.1 °F -0.4 °F 29% 30.26 in 10.0 mi NNW 10.4 mph 19.6 mph N/A   Clear
1:35 PM 28.4 °F 21.2 °F -0.4 °F 29% 30.27 in 10.0 mi NW 6.9 mph - N/A   Clear
1:55 PM 28.4 °F 19.7 °F 1.4 °F 31% 30.27 in 10.0 mi NW 9.2 mph - N/A   Clear
2:15 PM 28.4 °F 19.7 °F 1.4 °F 31% 30.28 in 10.0 mi NNW 9.2 mph - N/A   Clear
2:35 PM 28.4 °F 21.2 °F 1.4 °F 31% 30.28 in 10.0 mi WNW 6.9 mph 17.3 mph N/A   Clear
2:55 PM 28.4 °F 19.1 °F 1.4 °F 31% 30.29 in 10.0 mi WNW 10.4 mph - N/A   Clear
3:15 PM 28.4 °F 22.2 °F 1.4 °F 31% 30.30 in 10.0 mi NW 5.8 mph - N/A   Clear
3:35 PM 28.4 °F 22.2 °F 1.4 °F 31% 30.30 in 10.0 mi NW 5.8 mph - N/A   Clear
3:55 PM 28.4 °F 20.4 °F 1.4 °F 31% 30.31 in 10.0 mi WNW 8.1 mph - N/A   Clear
4:15 PM 28.4 °F 21.2 °F 1.4 °F 31% 30.31 in 10.0 mi NW 6.9 mph - N/A   Clear
4:35 PM 26.6 °F 21.2 °F 3.2 °F 37% 30.30 in 10.0 mi NNW 4.6 mph - N/A   Clear
4:55 PM 26.6 °F 22.6 °F 3.2 °F 37% 30.30 in 10.0 mi NNW 3.5 mph - N/A   Clear
5:15 PM 26.6 °F - 3.2 °F 37% 30.32 in 10.0 mi Calm Calm - N/A   Clear
5:35 PM 26.6 °F - 3.2 °F 37% 30.32 in 10.0 mi Calm Calm - N/A   Clear
5:55 PM 24.8 °F - 5.0 °F 43% 30.33 in 10.0 mi Calm Calm - N/A   Clear
6:15 PM 23.0 °F - 6.8 °F 50% 30.33 in 10.0 mi Calm Calm - N/A   Clear
6:35 PM 24.8 °F - 5.0 °F 43% 30.33 in 10.0 mi Calm Calm - N/A   Clear
6:55 PM 21.2 °F - 6.8 °F 54% 30.33 in 10.0 mi Calm Calm - N/A   Clear
7:15 PM 21.2 °F - 8.6 °F 58% 30.33 in 10.0 mi Calm Calm - N/A   Clear
7:35 PM 21.2 °F - 10.4 °F 63% 30.33 in 10.0 mi Calm Calm - N/A   Clear
7:55 PM 19.4 °F - 12.2 °F 74% 30.32 in 10.0 mi Calm Calm - N/A   Clear
8:15 PM 21.2 °F - 10.4 °F 63% 30.33 in 10.0 mi Calm Calm - N/A   Clear
8:35 PM 19.4 °F - 10.4 °F 68% 30.34 in 10.0 mi Calm Calm - N/A   Clear
8:55 PM 19.4 °F - 12.2 °F 74% 30.34 in 10.0 mi Calm Calm - N/A   Clear
9:15 PM 19.4 °F - 10.4 °F 68% 30.34 in 10.0 mi Calm Calm - N/A   Clear
9:35 PM 19.4 °F - 10.4 °F 68% 30.34 in 10.0 mi Calm Calm - N/A   Clear
9:55 PM 19.4 °F - 10.4 °F 68% 30.34 in 10.0 mi Calm Calm - N/A   Clear
10:35 PM 19.4 °F - 10.4 °F 68% 30.35 in 10.0 mi Calm Calm - N/A   Clear
10:55 PM 17.6 °F - 10.4 °F 73% 30.35 in 10.0 mi Calm Calm - N/A   Clear
11:15 PM 19.4 °F - 10.4 °F 68% 30.35 in 10.0 mi Calm Calm - N/A   Clear
11:35 PM 19.4 °F - 10.4 °F 68% 30.35 in 10.0 mi Calm Calm - N/A   Clear
11:55 PM 17.6 °F - 12.2 °F 79% 30.35 in 10.0 mi Calm Calm - N/A   Clear